Content
SEND FEEDBACK

Daily
Averages
Monthly
Summary
French Polynesia

PAPEETE, FRENCH POLYNESIA


Home > Oceania > French Polynesia
Elevation: 7 feet     Latitude: 17 33S     Longitude: 149 36W

WEATHER
 
SELECT A DAY
Number of Records: 207,916;   Date Range: 6/30/96 - 7/11/14
 
SHARE

PRINT THIS DATA

[ ← Previous Day ]
WEATHER ALMANAC - JULY 11, 2013
[ Next Day → ]
[ °C ]   °F
Weather ElementAverageHighLow
Temperature77 °F84.2 °F (2:30 pm)69.8 °F (6:00 am)
Dewpoint66 °F68 °F (1:30 pm)64 °F (5:00 am)
Humidity68.3 %83 % (2:00 am)48 % (2:00 pm)
Barometer29.97 in30.01 in (8:00 am)29.92 in (3:09 am)
Wind Speed4 mph8.1 mph (12:00 pm)
Weather ElementAverage
Visibility8.4 mi
Wind DirectionSSE (153 °)

Weather ElementTotal
Precipitation---
Cooling Degree Days12 (Base 65)
Growing Degree Days27 (Base 50)
Averaged from 54 records on July 11, 2013
WEATHER CONDITIONS BREAKOUT
WIND DIRECTION BREAKOUT
WEATHER BY HOUR - JULY 11, 2013
[ °C ]   °F
Local TimeTemperatureDewpointHumidityBarometerVisibilityWind DirectionWind SpeedGust SpeedPrecipitationEventsConditions
12:30 AM75.2 °F66.2 °F73 %29.98 in6.2 miSouth (170°)2.3 mphMostly Cloudy
1:00 AM73.4 °F66.2 °F78 %29.95 in6.2 miVariable3.5 mphPartly Cloudy
1:30 AM73.4 °F66.2 °F78 %29.95 in6.2 miSE (140°)3.5 mphPartly Cloudy
2:00 AM72.0 °F65.0 °F74 %29.96 in12.0 miESE (110°)5.8 mphScattered Clouds
2:00 AM71.6 °F66.2 °F83 %29.95 in6.2 miESE (110°)5.8 mphPartly Cloudy
3:09 AM71.6 °F66.2 °F83 %29.92 in6.2 miESE (120°)3.5 mphPartly Cloudy
3:30 AM71.6 °F64.4 °F78 %29.92 in6.2 miSSE (150°)1.2 mph
4:00 AM71.6 °F64.4 °F78 %29.92 in6.2 miSouth (170°)5.8 mph
4:30 AM71.6 °F64.4 °F78 %29.92 in6.2 miSSE (160°)5.8 mph
5:00 AM71.0 °F64.0 °F74 %29.95 in37.0 miESE (120°)2.3 mphClear
5:00 AM71.6 °F64.4 °F78 %29.95 in6.2 miESE (120°)2.3 mph
5:30 AM71.6 °F64.4 °F78 %29.95 in6.2 miESE (120°)2.3 mph
6:00 AM69.8 °F64.4 °F83 %29.95 in6.2 miEast (90°)3.5 mphPartly Cloudy
6:30 AM69.8 °F64.4 °F83 %29.98 in6.2 miSouth (180°)4.6 mphPartly Cloudy
7:00 AM69.8 °F64.4 °F83 %29.98 in6.2 miVariable3.5 mphPartly Cloudy
7:30 AM73.4 °F66.2 °F78 %29.98 in6.2 miEast (100°)2.3 mphPartly Cloudy
8:00 AM76.0 °F67.0 °F66 %30.01 in19.0 miENE (70°)3.5 mphPartly Cloudy
8:00 AM77.0 °F66.2 °F69 %30.01 in6.2 miENE (70°)3.5 mphPartly Cloudy
8:30 AM78.8 °F66.2 °F65 %30.01 in6.2 miVariable2.3 mphPartly Cloudy
9:00 AM80.6 °F66.2 °F61 %30.01 in6.2 miNorth (350°)3.5 mphPartly Cloudy
9:30 AM80.6 °F66.2 °F61 %30.01 in6.2 miNorth (10°)6.9 mphPartly Cloudy
10:00 AM80.6 °F66.2 °F61 %30.01 in6.2 miNorth (360°)3.5 mphPartly Cloudy
10:30 AM80.6 °F66.2 °F61 %30.01 in6.2 miVariable2.3 mphPartly Cloudy
11:00 AM82.0 °F67.0 °F51 %30.01 in25.0 miWNW (300°)2.3 mphScattered Clouds
11:00 AM82.4 °F66.2 °F58 %30.01 in6.2 miVariable2.3 mphPartly Cloudy
11:30 AM82.4 °F66.2 °F58 %29.98 in6.2 miWest (270°)3.5 mphScattered Clouds
12:00 PM82.4 °F66.2 °F58 %29.98 in6.2 miSW (230°)8.1 mphPartly Cloudy
12:30 PM82.4 °F66.2 °F58 %29.98 in6.2 miSW (220°)4.6 mphPartly Cloudy
1:00 PM82.4 °F66.2 °F58 %29.95 in6.2 miSW (220°)6.9 mphPartly Cloudy
1:30 PM82.4 °F68.0 °F62 %29.95 in6.2 miWSW (240°)6.9 mphPartly Cloudy
2:00 PM82.0 °F65.0 °F48 %29.95 in25.0 miSW (220°)8.1 mphScattered Clouds
2:00 PM82.4 °F66.2 °F58 %29.95 in6.2 miSW (220°)8.1 mphPartly Cloudy
2:30 PM84.2 °F66.2 °F55 %29.95 in6.2 miWest (260°)5.8 mphPartly Cloudy
3:00 PM82.4 °F66.2 °F58 %29.95 in6.2 miWest (270°)5.8 mphPartly Cloudy
3:30 PM84.2 °F66.2 °F55 %29.95 in6.2 miVariable3.5 mphPartly Cloudy
4:00 PM82.4 °F66.2 °F58 %29.92 in6.2 miVariable2.3 mphPartly Cloudy
4:30 PM82.4 °F66.2 °F58 %29.95 in6.2 miNW (320°)4.6 mphPartly Cloudy
5:00 PM80.0 °F66.0 °F54 %29.96 in25.0 miWNW (290°)4.6 mphScattered Clouds
5:00 PM80.6 °F66.2 °F61 %29.95 in6.2 miWNW (290°)4.6 mphPartly Cloudy
5:30 PM78.8 °F66.2 °F65 %29.95 in6.2 miWNW (290°)4.6 mphPartly Cloudy
6:00 PM78.8 °F66.2 °F65 %29.95 in6.2 miNW (320°)4.6 mphPartly Cloudy
6:30 PM77.0 °F66.2 °F69 %29.95 in6.2 miNNW (340°)3.5 mphPartly Cloudy
7:00 PM77.0 °F66.2 °F69 %29.98 in6.2 miENE (60°)4.6 mphPartly Cloudy
7:30 PM77.0 °F66.2 °F69 %29.98 in6.2 miEast (80°)3.5 mphPartly Cloudy
8:00 PM76.0 °F66.0 °F65 %29.99 in12.0 miEast (90°)2.3 mphPartly Cloudy
8:00 PM77.0 °F66.2 °F69 %29.98 in6.2 miEast (90°)2.3 mphScattered Clouds
8:30 PM75.2 °F66.2 °F73 %29.98 in6.2 miEast (90°)2.3 mphScattered Clouds
9:00 PM75.2 °F66.2 °F73 %29.98 in6.2 miSouth (180°)4.6 mphScattered Clouds
9:30 PM75.2 °F66.2 °F73 %29.98 in6.2 miSouth (180°)3.5 mphScattered Clouds
10:00 PM75.2 °F66.2 °F73 %29.98 in6.2 miSouth (170°)3.5 mphScattered Clouds
10:30 PM73.4 °F66.2 °F78 %29.98 in6.2 miVariable2.3 mphPartly Cloudy
11:00 PM73.0 °F67.0 °F75 %29.99 in12.0 miSSE (150°)3.5 mphScattered Clouds
11:00 PM73.4 °F66.2 °F78 %29.98 in6.2 miSSE (150°)3.5 mphPartly Cloudy
11:30 PM73.4 °F68.0 °F83 %29.98 in6.2 miVariable2.3 mphScattered Clouds
Hourly data recorded from NTAA, located miles away from Papeete, French Polynesia







STORIES FROM OUR PARTNERS